Overview Statistics Trail Chart Weather Telemetry Raw packets
 

This is the latest recevied weather packets stored in our database for station/object K7SKM. If no packets are shown the sender has not sent any weather packets the latest 10 day(s).

<< 55 56 57 58 59 60 61 >>
Time Temp. Humidity Pressure Rain* Wind** Luminosity Snow
1788301707 18.89° C 68% 1014.9 hPa 0 mm - 55 W/m² -
1788301404 18.89° C 68% 1014.7 hPa 0 mm - 60 W/m² -
1788301099 18.89° C 67% 1014.6 hPa 0 mm - 61 W/m² -
1788300794 18.89° C 68% 1014.6 hPa 0 mm - 51 W/m² -
1788300488 18.89° C 68% 1014.8 hPa 0 mm - 58 W/m² -
1788300182 18.89° C 68% 1014.8 hPa 0 mm - 43 W/m² -
1788299881 18.89° C 68% 1014.6 hPa 0 mm - 45 W/m² -
1788299580 18.89° C 67% 1014.7 hPa 0 mm - 62 W/m² -
1788299279 19.44° C 67% 1014.7 hPa 0 mm - 52 W/m² -
1788298978 18.89° C 67% 1014.6 hPa 0 mm - 54 W/m² -
1788298673 18.89° C 67% 1014.6 hPa 0 mm - 57 W/m² -
1788298372 18.89° C 67% 1014.6 hPa 0 mm - 48 W/m² -
1788298067 19.44° C 66% 1014.6 hPa 0 mm - 58 W/m² -
1788297763 19.44° C 65% 1014.8 hPa 0 mm - 73 W/m² -
1788297457 20° C 65% 1014.7 hPa 0 mm - 80 W/m² -
1788297154 20° C 64% 1014.5 hPa 0 mm - 80 W/m² -
1788296850 20° C 63% 1014.7 hPa 0 mm - 69 W/m² -
1788296545 20° C 63% 1014.7 hPa 0 mm - 62 W/m² -
1788296241 20° C 62% 1014.7 hPa 0 mm - 68 W/m² -
1788295941 20.56° C 62% 1014.7 hPa 0 mm - 75 W/m² -
1788295642 20.56° C 61% 1014.8 hPa 0 mm - 63 W/m² -
1788295332 20.56° C 61% 1014.8 hPa 0 mm - 72 W/m² -
1788295027 20.56° C 62% 1014.9 hPa 0 mm - 85 W/m² -
1788294721 20.56° C 62% 1014.9 hPa 0 mm - 111 W/m² -
1788294421 20° C 62% 1015 hPa 0 mm - 84 W/m² -

* Rain latest hour (hover to see other rain measurements)
** Current wind speed in m/s (hover to see current wind gust speed)